Wind_Speed
56 55 54 53 53 52 51 51 53 55 58 61 62 64 64 64 63 62 61 60 59 58 56 55 53 51 49 47 45 42 39 36 33 31 31 29 28 26 25 24 24 23 23
56 55 54 52 50 47 45 44 45 47 50 54 59 63 65 67 67 67 66 66 65 64 62 60 58 56 53 50 48 45 42 39 36 33 32 31 29 27 26 24 24 23 23
56 55 53 50 47 45 43 42 41 40 41 45 49 54 60 65 68 69 70 70 69 68 67 65 62 61 58 55 52 49 45 42 38 35 33 32 30 28 26 25 24 23 23
56 55 53 51 48 46 44 42 41 40 38 38 41 44 49 55 61 67 71 72 72 72 71 69 66 63 60 58 55 52 48 45 41 37 35 33 31 29 27 26 24 23 23
57 56 54 53 51 49 47 44 43 41 40 38 37 38 40 43 47 53 61 66 70 72 73 72 69 66 62 59 56 53 50 47 43 39 36 34 31 29 28 26 25 24 23
57 56 55 54 52 51 49 47 45 44 42 41 39 37 37 38 39 41 45 53 59 65 69 71 70 68 64 61 57 54 51 48 44 41 38 35 32 30 28 26 25 23 23
56 55 54 53 52 50 49 47 46 44 44 42 41 40 38 37 37 37 38 40 45 52 59 64 67 68 65 62 59 55 51 48 45 42 39 36 33 30 28 26 25 23 22
55 53 51 50 48 47 47 46 45 44 43 43 42 41 40 38 37 35 34 34 36 40 46 53 58 61 62 61 59 55 52 48 44 42 39 37 34 31 28 26 25 24 22
53 51 49 48 46 44 44 43 42 42 41 41 42 40 39 38 37 35 33 32 31 32 36 42 48 52 55 58 57 54 51 48 45 42 39 36 34 31 28 26 24 23 22
52 49 47 45 43 41 39 38 38 39 38 38 40 40 39 38 36 34 33 30 30 30 31 34 39 44 48 51 53 53 50 48 45 42 39 36 33 31 28 26 24 23 22
50 47 44 41 39 37 35 33 32 34 35 35 37 37 38 37 36 34 32 30 29 29 29 30 34 38 42 46 48 49 49 47 45 42 39 36 33 30 28 25 23 22 22
48 45 41 38 35 32 30 28 27 28 30 32 33 34 36 37 35 34 31 29 28 27 26 28 30 34 39 43 45 46 47 46 44 42 39 36 32 30 27 25 24 22 22
45 41 38 33 30 27 24 22 22 23 24 27 29 31 33 34 34 32 30 29 28 26 26 26 28 32 38 41 42 43 45 45 43 41 39 36 33 30 28 25 24 23 22
43 38 35 30 26 23 19 16 16 17 19 21 25 28 30 31 31 30 29 28 26 24 24 24 25 29 35 40 42 42 43 43 42 40 37 35 33 30 28 26 25 23 22
41 37 32 28 25 21 16 12 9 9 12 16 20 24 27 28 28 28 27 26 24 23 23 24 24 29 34 39 42 42 42 42 41 39 37 35 33 30 28 26 24 22 22
40 35 31 27 24 20 16 11 6 2 6 11 15 19 22 24 24 25 25 23 22 21 22 22 24 28 36 40 42 42 43 42 40 37 35 34 32 30 28 26 25 23 21
38 33 29 26 24 21 16 12 8 4 4 8 12 16 18 20 21 22 21 21 20 20 20 22 24 30 37 39 41 43 42 41 39 36 34 32 31 29 28 26 25 23 22
37 32 29 26 24 21 17 13 10 8 7 9 12 14 16 17 18 18 18 19 19 18 18 21 25 33 38 39 41 43 42 40 38 35 33 32 30 28 27 26 25 23 22
37 33 30 27 25 22 19 16 13 10 10 11 12 13 14 14 14 15 16 16 16 16 17 22 28 34 38 40 42 41 41 38 35 33 32 31 29 28 26 25 24 22 22
38 34 30 27 26 24 21 19 16 14 13 12 13 13 13 13 13 14 14 15 15 15 18 25 31 36 38 40 41 40 38 36 34 32 31 30 28 27 25 24 23 22 21
38 34 31 28 26 24 23 21 19 16 15 14 13 13 13 13 13 14 15 16 17 19 23 29 33 36 38 39 39 38 36 34 33 31 30 28 27 26 25 24 23 22 21
37 34 31 28 26 24 23 22 21 20 18 17 15 15 15 15 15 16 18 21 24 26 29 31 34 36 37 37 36 35 33 32 30 29 28 26 25 24 23 22 22 21 20
35 33 31 28 26 24 22 22 21 20 19 18 18 18 18 18 20 22 24 26 27 28 29 31 33 34 33 33 33 32 31 30 29 27 26 24 23 23 22 21 21 20 19
33 32 30 28 27 24 22 21 21 21 21 21 21 21 21 22 23 25 27 29 29 29 28 29 30 30 30 29 29 29 28 27 26 25 24 23 22 21 20 20 19 18 17
30 30 29 28 26 26 24 23 22 23 23 23 24 24 25 25 26 28 29 29 29 28 28 28 28 27 26 25 25 25 24 24 23 23 22 21 20 19 18 17 16 16 16
26 27 27 27 26 25 24 24 23 23 23 23 24 24 25 27 28 28 28 28 28 28 27 26 25 25 24 23 23 22 22 21 20 20 19 18 17 16 15 15 14 15 15
Wind_Direction
300 298 295 292 289 285 281 275 270 264 259 256 253 251 249 248 246 245 243 242 242 242 242 242 243 242 242 243 244 244 246 247 250 254 260 264 269 274 277 281 283 282 278
302 300 298 295 292 289 284 279 274 268 262 257 253 249 247 246 245 244 243 241 240 240 240 240 241 241 241 242 242 243 244 245 247 249 255 260 266 270 274 279 282 282 278
304 302 299 296 292 288 285 281 277 273 267 262 257 253 249 246 244 243 243 241 240 239 239 239 239 239 240 240 241 242 243 244 245 247 250 256 261 266 270 274 278 279 276
305 302 299 296 292 288 284 280 277 273 269 265 261 257 254 251 248 244 242 242 241 239 238 238 238 238 238 239 239 240 241 242 244 245 247 251 256 261 265 269 272 275 273
304 301 298 295 291 287 282 278 274 271 268 265 262 259 256 254 252 250 247 244 242 241 239 238 237 237 236 236 237 238 239 239 241 243 245 248 252 257 260 264 267 271 270
304 301 297 294 291 287 283 278 273 268 264 261 260 257 256 255 254 253 251 249 246 243 241 239 237 236 236 235 235 235 236 237 238 240 242 244 248 252 255 259 263 266 265
307 303 299 295 290 286 282 279 274 267 262 258 256 254 253 252 252 253 253 252 249 246 243 240 238 236 235 234 233 232 233 233 234 236 237 240 244 247 251 254 257 260 259
311 306 301 297 292 286 283 278 273 267 261 256 253 250 249 249 249 250 252 252 250 248 245 241 238 236 234 233 231 230 230 230 230 231 233 235 239 243 246 250 252 254 253
314 310 304 299 294 289 284 278 272 266 260 254 249 247 244 244 244 245 247 249 248 247 245 241 238 234 232 231 229 227 226 226 226 227 229 232 234 239 242 245 247 248 247
318 314 308 303 297 292 286 280 272 264 258 252 247 243 240 239 239 240 242 244 245 245 243 239 234 231 229 227 226 224 223 222 223 224 226 228 230 233 236 239 242 242 243
323 319 314 308 301 295 287 280 273 263 255 250 245 240 235 233 234 236 238 239 241 242 241 236 231 227 224 222 221 220 219 219 219 221 222 223 225 228 230 232 235 236 237
328 326 322 315 308 300 291 281 273 263 253 246 241 237 232 229 229 231 233 233 235 236 237 233 228 222 218 215 215 215 215 215 216 218 219 220 221 223 224 227 229 231 232
335 333 330 326 319 311 299 286 274 262 252 241 234 231 227 225 225 226 227 228 230 233 233 229 223 218 213 209 208 210 210 210 211 214 215 216 217 218 219 222 222 224 227
342 341 341 339 334 326 313 297 278 261 248 235 227 223 221 220 220 220 222 224 226 229 227 222 218 210 206 203 201 203 204 205 207 208 210 212 212 214 215 216 218 222 223
350 350 350 351 351 347 339 325 295 261 240 224 217 213 212 212 213 215 217 220 222 224 222 217 213 206 200 193 193 197 198 200 202 204 206 208 209 210 211 214 217 218 218
354 356 359 1 1 3 2 359 350 279 213 204 202 200 201 202 204 208 213 215 217 218 216 214 207 200 193 187 187 191 193 195 197 200 201 203 204 206 208 210 212 213 214
360 2 6 9 11 13 16 21 32 65 143 170 180 183 187 192 197 203 207 209 210 212 215 209 197 193 187 183 184 184 185 190 193 195 197 200 201 203 205 206 208 208 209
7 9 11 14 16 19 25 34 48 73 106 138 157 167 175 183 189 195 199 202 204 206 207 201 190 184 180 177 177 178 181 185 187 190 193 195 198 199 200 202 204 205 205
14 16 19 22 25 30 36 44 55 72 98 123 140 152 163 173 180 184 187 190 189 190 190 185 180 176 174 174 174 176 179 182 185 188 191 193 196 197 198 199 200 200 202
19 23 26 30 35 40 45 51 62 77 93 109 124 136 148 156 162 166 169 170 173 175 174 171 171 169 168 170 172 174 176 179 183 185 188 191 192 193 195 196 197 197 199
24 28 32 36 41 46 51 56 64 74 86 99 110 120 130 139 146 151 153 153 154 156 156 158 163 164 164 166 169 172 176 179 181 183 185 188 189 191 194 195 196 197 198
25 29 34 38 43 49 54 59 64 70 80 93 105 112 117 124 130 134 136 137 139 143 147 152 157 160 162 166 170 172 175 177 180 183 185 187 189 190 192 193 195 198 202
27 30 34 39 43 48 54 59 65 71 79 87 95 102 109 115 120 125 128 131 134 138 143 148 153 156 159 164 168 170 174 177 179 181 183 185 187 188 191 193 197 201 205
30 34 37 40 46 51 56 62 68 75 83 90 95 101 105 109 115 119 124 129 133 138 142 146 150 154 157 161 165 169 172 175 177 179 181 183 184 187 190 194 198 204 211
33 37 41 46 51 56 62 69 75 81 87 92 97 99 102 107 114 119 122 126 132 137 142 145 146 150 154 157 162 166 171 172 174 176 178 180 183 187 192 197 205 213 220
34 39 43 49 54 59 64 70 77 84 90 94 99 103 105 109 113 118 122 126 130 134 138 141 143 146 150 155 158 162 166 168 171 174 177 181 186 192 199 207 215 224 233
Height
5696 5691 5687 5683 5680 5677 5675 5673 5672 5672 5673 5675 5678 5681 5685 5689 5693 5697 5701 5706 5710 5715 5719 5724 5728 5733 5737 5742 5747 5752 5756 5760 5764 5765 5766 5767 5768 5769 5768 5767 5767 5766 5766
5677 5672 5668 5664 5660 5657 5655 5653 5652 5652 5652 5653 5655 5658 5662 5666 5671 5676 5681 5686 5691 5696 5702 5707 5713 5718 5723 5728 5734 5739 5744 5749 5753 5756 5758 5759 5760 5761 5761 5761 5760 5760 5759
5659 5654 5649 5646 5643 5640 5638 5636 5635 5634 5634 5634 5635 5637 5640 5643 5648 5653 5659 5664 5670 5676 5682 5689 5695 5702 5708 5714 5720 5726 5731 5737 5742 5746 5749 5750 5752 5753 5754 5754 5754 5753 5753
5642 5636 5631 5628 5625 5623 5621 5619 5619 5618 5618 5618 5618 5619 5621 5623 5627 5631 5636 5642 5648 5655 5662 5670 5677 5685 5692 5699 5705 5712 5718 5725 5731 5736 5739 5742 5744 5745 5746 5747 5747 5747 5747
5625 5619 5613 5609 5606 5604 5603 5602 5602 5602 5602 5603 5603 5604 5605 5607 5610 5612 5616 5621 5627 5634 5641 5649 5658 5667 5675 5683 5691 5698 5705 5712 5719 5725 5729 5733 5735 5737 5739 5740 5740 5740 5740
5608 5601 5595 5590 5587 5584 5583 5583 5583 5584 5585 5586 5588 5590 5591 5593 5595 5597 5600 5604 5609 5614 5621 5629 5639 5649 5658 5667 5676 5684 5692 5700 5707 5714 5719 5723 5727 5729 5731 5732 5733 5734 5734
5591 5583 5576 5570 5567 5564 5563 5562 5563 5564 5566 5569 5572 5575 5578 5580 5582 5585 5587 5590 5593 5598 5603 5611 5620 5630 5641 5651 5661 5670 5679 5687 5696 5703 5709 5714 5717 5720 5723 5725 5726 5727 5728
5576 5566 5559 5552 5548 5545 5543 5543 5543 5545 5547 5551 5555 5559 5563 5567 5570 5573 5575 5578 5581 5584 5589 5595 5603 5613 5624 5635 5646 5657 5667 5676 5684 5692 5699 5704 5708 5712 5715 5717 5719 5720 5722
5561 5551 5543 5536 5531 5527 5525 5524 5525 5526 5529 5533 5538 5543 5548 5553 5557 5561 5564 5568 5570 5573 5577 5582 5589 5599 5610 5621 5633 5644 5655 5664 5673 5681 5688 5694 5699 5703 5707 5710 5712 5714 5715
5547 5537 5528 5520 5515 5511 5508 5507 5507 5509 5513 5517 5522 5528 5534 5540 5545 5550 5554 5558 5561 5564 5567 5572 5578 5587 5596 5607 5619 5631 5643 5653 5662 5671 5678 5684 5690 5695 5699 5702 5705 5708 5709
5535 5524 5514 5506 5500 5496 5493 5492 5492 5494 5498 5502 5508 5514 5521 5527 5534 5539 5544 5548 5552 5555 5558 5562 5568 5576 5585 5596 5608 5620 5631 5642 5652 5661 5669 5676 5682 5687 5691 5695 5698 5701 5704
5525 5513 5503 5495 5488 5483 5480 5480 5480 5481 5484 5489 5495 5501 5508 5515 5522 5529 5534 5539 5544 5547 5550 5554 5559 5567 5576 5587 5598 5610 5621 5632 5643 5652 5661 5668 5675 5680 5684 5688 5692 5695 5698
5516 5505 5495 5486 5479 5474 5471 5470 5469 5471 5474 5478 5484 5490 5498 5505 5513 5519 5526 5531 5536 5540 5543 5547 5552 5559 5568 5579 5590 5601 5612 5624 5634 5644 5653 5661 5668 5673 5678 5682 5686 5689 5692
5511 5499 5489 5481 5474 5468 5465 5463 5462 5463 5466 5470 5476 5482 5490 5497 5505 5512 5518 5524 5529 5533 5537 5541 5547 5553 5561 5572 5583 5594 5605 5617 5627 5637 5646 5654 5661 5666 5671 5676 5681 5684 5687
5508 5497 5488 5479 5473 5467 5462 5460 5459 5459 5461 5465 5470 5477 5484 5492 5499 5506 5512 5518 5523 5527 5532 5537 5542 5548 5555 5565 5577 5588 5599 5611 5621 5631 5640 5648 5655 5661 5666 5670 5675 5679 5683
5508 5497 5489 5481 5474 5469 5464 5461 5459 5459 5461 5464 5469 5475 5481 5489 5495 5502 5508 5514 5518 5523 5528 5532 5537 5543 5551 5561 5572 5584 5595 5606 5617 5626 5635 5643 5649 5655 5661 5666 5670 5674 5678
5508 5499 5491 5484 5477 5472 5468 5465 5463 5462 5463 5466 5470 5476 5482 5488 5494 5500 5505 5510 5515 5520 5524 5529 5534 5540 5549 5558 5569 5581 5592 5603 5614 5623 5631 5638 5645 5651 5656 5661 5666 5670 5674
5511 5502 5495 5488 5482 5477 5472 5470 5468 5467 5468 5470 5474 5478 5483 5488 5494 5499 5503 5508 5513 5517 5521 5526 5532 5539 5548 5558 5569 5580 5591 5601 5611 5620 5628 5635 5641 5647 5652 5657 5662 5666 5670
5517 5508 5500 5494 5488 5483 5479 5476 5474 5474 5474 5476 5479 5482 5486 5490 5494 5499 5503 5507 5511 5516 5520 5525 5532 5540 5550 5560 5571 5581 5591 5601 5610 5618 5626 5633 5639 5644 5649 5654 5659 5663 5667
5523 5515 5507 5501 5496 5491 5487 5484 5482 5481 5482 5483 5485 5488 5490 5494 5497 5500 5504 5508 5512 5516 5520 5527 5535 5544 5553 5563 5573 5583 5592 5602 5610 5617 5625 5631 5637 5642 5647 5652 5656 5661 5665
5531 5523 5516 5510 5505 5501 5497 5494 5491 5490 5490 5490 5491 5493 5495 5498 5501 5504 5507 5510 5514 5519 5524 5532 5540 5549 5558 5568 5577 5586 5595 5603 5610 5617 5624 5630 5635 5640 5645 5650 5654 5659 5663
5540 5532 5525 5519 5514 5510 5507 5504 5501 5499 5498 5498 5499 5500 5501 5503 5505 5508 5512 5516 5521 5526 5532 5540 5548 5556 5565 5573 5581 5589 5597 5604 5611 5617 5623 5629 5634 5639 5644 5649 5653 5658 5662
5548 5541 5534 5528 5523 5519 5516 5513 5510 5508 5507 5507 5507 5507 5509 5510 5512 5515 5519 5524 5530 5535 5542 5549 5556 5564 5571 5578 5586 5593 5600 5606 5613 5618 5624 5629 5634 5639 5644 5648 5653 5657 5660
5556 5550 5543 5537 5532 5528 5525 5522 5519 5518 5516 5516 5516 5516 5517 5519 5522 5525 5529 5534 5540 5545 5552 5558 5564 5571 5578 5584 5590 5597 5603 5608 5614 5619 5625 5630 5634 5639 5644 5648 5652 5655 5659
5565 5558 5553 5547 5542 5538 5534 5532 5529 5528 5527 5526 5526 5527 5528 5530 5532 5535 5540 5544 5549 5555 5560 5566 5572 5578 5583 5589 5595 5601 5606 5611 5617 5621 5626 5631 5635 5639 5643 5647 5651 5654 5656
5572 5567 5562 5557 5552 5548 5545 5542 5540 5538 5537 5537 5537 5538 5539 5541 5544 5547 5551 5555 5559 5564 5569 5574 5579 5584 5589 5595 5600 5605 5610 5615 5619 5624 5628 5632 5636 5639 5643 5646 5649 5651 5654